This demonstration page uses our WeatherBlox Daily Observations layout. Learn more.

Left ArrowRight Arrow

34.74481, -87.66753

Hourly Observations for April 14, 2017

Temp ( °F °C ) Dew Point ( °F °C ) Humidity (%) Winds ( mph kmh ) Pressure ( in mb ) Visibility ( mi km ) Precip ( " mm )
12:53 am 00:53 Clear 59 15 53 11.7 81 81 Calm 30.18 1022 10 16 0.00 0.00
1:53 am 01:53 Clear 58 14.4 52 11.1 81 81 Calm 30.18 1022 10 16 0.00 0.00
2:53 am 02:53 Clear 57 13.9 52 11.1 83 83 Calm 30.18 1022 10 16 0.00 0.00
3:53 am 03:53 Mostly Cloudy 58 14.4 54 12.2 87 87 Calm 30.18 1022 10 16 0.00 0.00
4:53 am 04:53 Cloudy 57 13.9 53 11.7 87 87 Calm 30.18 1022 10 16 0.00 0.00
5:53 am 05:53 Cloudy 58 14.4 53 11.7 84 84 Calm 30.20 1023 10 16 0.00 0.00
6:53 am 06:53 Partly Cloudy 59 15 55 12.8 87 87 ESE 6 9 30.22 1023 10 16 0.00 0.00
7:53 am 07:53 Cloudy 64 17.8 56 13.3 75 75 Calm 30.23 1024 10 16 0.00 0.00
8:53 am 08:53 Cloudy 66 18.9 55 12.8 68 68 SE 3 6 30.24 1024 10 16 0.00 0.00
9:53 am 09:53 Cloudy 71 21.7 55 12.8 57 57 Calm 30.24 1024 10 16 0.00 0.00
10:53 am 10:53 Sunny 79 26.1 56 13.3 45 45 Calm 30.23 1024 10 16 0.00 0.00
11:53 am 11:53 Sunny 83 28.3 53 11.7 36 36 Calm 30.22 1023 10 16 0.00 0.00
12:53 pm 12:53 Mostly Sunny 83 28.3 53 11.7 36 36 VRB 5 7 30.19 1022 10 16 0.00 0.00
1:53 pm 13:53 Partly Cloudy 84 28.9 52 11.1 33 33 S 9 15 30.17 1022 10 16 0.00 0.00
2:53 pm 14:53 Sunny 84 28.9 52 11.1 33 33 SSE 5 7 30.15 1021 10 16 0.00 0.00
3:53 pm 15:53 Partly Cloudy 84 28.9 50 10 31 31 SSE 8 13 30.14 1021 10 16 0.00 0.00
4:53 pm 16:53 Mostly Cloudy 83 28.3 52 11.1 34 34 SSE 6 9 30.14 1021 10 16 0.00 0.00
5:53 pm 17:53 Cloudy 82 27.8 54 12.2 38 38 SE 6 9 30.14 1021 10 16 0.00 0.00
6:53 pm 18:53 Mostly Sunny 78 25.6 53 11.7 42 42 S 6 9 30.14 1021 10 16 0.00 0.00
7:53 pm 19:53 Clear 76 24.4 50 10 40 40 S 5 7 30.15 1021 10 16 0.00 0.00
8:53 pm 20:53 Clear 68 20 52 11.1 57 57 SE 5 7 30.16 1021 10 16 0.00 0.00
9:53 pm 21:53 Clear 65 18.3 54 12.2 68 68 SE 3 6 30.18 1022 10 16 0.00 0.00
10:53 pm 22:53 Clear 63 17.2 54 12.2 73 73 SSE 3 6 30.18 1022 10 16 0.00 0.00
11:53 pm 23:53 Clear 64 17.8 52 11.1 65 65 SE 3 6 30.18 1022 10 16 0.00 0.00

Powered by AerisWeather